Time,TemperatureF,DewpointF,PressureIn,WindDirection,WindDirectionDegrees,WindSpeedMPH,WindSpeedGustMPH,Humidity,HourlyPrecipIn,Conditions,Clouds,dailyrainin,SolarRadiationWatts/m^2,SoftwareType,DateUTC
2013-05-09 00:02:00,78.0,67.0,30.02,ENE,62,4.0,5.0,70,0.00,,,0.00,0.000000,,2013-05-09 10:02:00,
2013-05-09 00:12:00,78.0,67.0,30.02,ENE,62,4.0,5.0,70,0.00,,,0.00,0.000000,,2013-05-09 10:12:00,
2013-05-09 00:42:00,77.0,67.0,30.00,East,95,2.0,5.0,71,0.00,,,0.00,0.000000,,2013-05-09 10:42:00,
2013-05-09 00:52:00,77.0,67.0,30.00,East,95,2.0,5.0,71,0.00,,,0.00,0.000000,,2013-05-09 10:52:00,
2013-05-09 01:02:00,77.0,67.0,30.00,East,95,2.0,5.0,71,0.00,,,0.00,0.000000,,2013-05-09 11:02:00,
2013-05-09 01:12:00,77.0,67.0,30.00,East,95,2.0,5.0,71,0.00,,,0.00,0.000000,,2013-05-09 11:12:00,
2013-05-09 01:32:00,75.0,66.0,29.99,North,8,1.0,4.0,74,0.00,,,0.00,0.000000,,2013-05-09 11:32:00,
2013-05-09 01:42:00,75.0,66.0,29.99,North,8,1.0,4.0,74,0.00,,,0.00,0.000000,,2013-05-09 11:42:00,
2013-05-09 01:52:00,75.0,66.0,29.99,North,8,1.0,4.0,74,0.00,,,0.00,0.000000,,2013-05-09 11:52:00,
2013-05-09 02:01:00,75.0,66.0,29.99,North,8,1.0,4.0,74,0.00,,,0.00,0.000000,,2013-05-09 12:01:00,
2013-05-09 02:11:00,75.0,66.0,29.99,North,8,1.0,4.0,74,0.00,,,0.00,0.000000,,2013-05-09 12:11:00,
2013-05-09 02:42:00,74.0,66.0,29.97,NE,52,5.0,7.0,76,0.00,,,0.00,0.000000,,2013-05-09 12:42:00,
2013-05-09 02:52:00,74.0,66.0,29.97,NE,52,5.0,7.0,76,0.00,,,0.00,0.000000,,2013-05-09 12:52:00,
2013-05-09 03:01:00,74.0,66.0,29.97,NE,52,5.0,7.0,76,0.00,,,0.00,0.000000,,2013-05-09 13:01:00,
2013-05-09 03:12:00,74.0,66.0,29.97,NE,52,5.0,7.0,76,0.00,,,0.00,0.000000,,2013-05-09 13:12:00,
2013-05-09 03:42:00,73.0,65.0,29.96,SE,142,1.0,6.0,76,0.00,,,0.00,0.000000,,2013-05-09 13:42:00,
2013-05-09 03:52:00,73.0,65.0,29.96,SE,142,1.0,6.0,76,0.00,,,0.00,0.000000,,2013-05-09 13:52:00,
2013-05-09 04:01:00,73.0,65.0,29.96,SE,142,1.0,6.0,76,0.00,,,0.00,0.000000,,2013-05-09 14:01:00,
2013-05-09 04:11:00,73.0,65.0,29.96,SE,142,1.0,6.0,76,0.00,,,0.00,0.000000,,2013-05-09 14:11:00,
2013-05-09 04:32:00,72.0,64.0,29.96,East,81,0.0,4.0,77,0.00,,,0.00,0.000000,,2013-05-09 14:32:00,
2013-05-09 04:42:00,72.0,64.0,29.96,East,81,0.0,4.0,77,0.00,,,0.00,0.000000,,2013-05-09 14:42:00,
2013-05-09 04:52:00,72.0,64.0,29.96,East,81,0.0,4.0,77,0.00,,,0.00,0.000000,,2013-05-09 14:52:00,
2013-05-09 05:01:00,72.0,64.0,29.96,East,81,0.0,4.0,77,0.00,,,0.00,0.000000,,2013-05-09 15:01:00,
2013-05-09 05:11:00,72.0,64.0,29.96,East,81,0.0,4.0,77,0.00,,,0.00,0.000000,,2013-05-09 15:11:00,
2013-05-09 05:43:00,72.0,64.0,29.97,NNW,336,2.0,6.0,76,0.00,,,0.00,0.000000,,2013-05-09 15:43:00,
2013-05-09 05:53:00,72.0,64.0,29.97,NNW,336,2.0,6.0,76,0.00,,,0.00,0.000000,,2013-05-09 15:53:00,
2013-05-09 06:03:00,72.0,64.0,29.97,NNW,336,2.0,6.0,76,0.00,,,0.00,0.000000,,2013-05-09 16:03:00,
2013-05-09 06:12:00,72.0,64.0,29.97,NNW,336,2.0,6.0,76,0.00,,,0.00,0.000000,,2013-05-09 16:12:00,
2013-05-09 06:42:00,72.0,64.0,29.99,ENE,60,3.0,5.0,76,0.00,,,0.00,4.000000,,2013-05-09 16:42:00,
2013-05-09 06:53:00,72.0,64.0,29.99,ENE,60,3.0,5.0,76,0.00,,,0.00,4.000000,,2013-05-09 16:53:00,
2013-05-09 07:02:00,72.0,64.0,29.99,ENE,60,3.0,5.0,76,0.00,,,0.00,4.000000,,2013-05-09 17:02:00,
2013-05-09 07:12:00,72.0,64.0,29.99,ENE,60,3.0,5.0,76,0.00,,,0.00,4.000000,,2013-05-09 17:12:00,
2013-05-09 07:32:00,78.0,65.0,30.01,ESE,104,2.0,4.0,64,0.00,,,0.00,85.000000,,2013-05-09 17:32:00,
2013-05-09 07:42:00,78.0,65.0,30.01,ESE,104,2.0,4.0,64,0.00,,,0.00,85.000000,,2013-05-09 17:42:00,
2013-05-09 07:55:00,78.0,65.0,30.01,ESE,104,2.0,4.0,64,0.00,,,0.00,85.000000,,2013-05-09 17:55:00,
2013-05-09 08:01:00,78.0,65.0,30.01,ESE,104,2.0,4.0,64,0.00,,,0.00,85.000000,,2013-05-09 18:01:00,
2013-05-09 08:12:00,78.0,65.0,30.01,ESE,104,2.0,4.0,64,0.00,,,0.00,85.000000,,2013-05-09 18:12:00,
2013-05-09 08:42:00,84.0,68.0,30.02,WSW,257,5.0,7.0,59,0.00,,,0.00,361.000000,,2013-05-09 18:42:00,
2013-05-09 08:52:00,84.0,68.0,30.02,WSW,257,5.0,7.0,59,0.00,,,0.00,361.000000,,2013-05-09 18:52:00,
2013-05-09 09:01:00,84.0,68.0,30.02,WSW,257,5.0,7.0,59,0.00,,,0.00,361.000000,,2013-05-09 19:01:00,
2013-05-09 09:11:00,84.0,68.0,30.02,WSW,257,5.0,7.0,59,0.00,,,0.00,361.000000,,2013-05-09 19:11:00,
2013-05-09 09:42:00,83.0,70.0,30.03,WNW,283,9.0,12.0,65,0.00,,,0.00,483.000000,,2013-05-09 19:42:00,
2013-05-09 09:52:00,83.0,70.0,30.03,WNW,283,9.0,12.0,65,0.00,,,0.00,483.000000,,2013-05-09 19:52:00,
2013-05-09 10:01:00,83.0,70.0,30.03,WNW,283,9.0,12.0,65,0.00,,,0.00,483.000000,,2013-05-09 20:01:00,
2013-05-09 10:11:00,83.0,70.0,30.03,WNW,283,9.0,12.0,65,0.00,,,0.00,483.000000,,2013-05-09 20:11:00,
2013-05-09 10:42:00,84.0,70.0,30.03,West,278,9.0,13.0,63,0.00,,,0.00,537.000000,,2013-05-09 20:42:00,
2013-05-09 10:52:00,84.0,70.0,30.03,West,278,9.0,13.0,63,0.00,,,0.00,537.000000,,2013-05-09 20:52:00,
2013-05-09 11:01:00,84.0,70.0,30.03,West,278,9.0,13.0,63,0.00,,,0.00,537.000000,,2013-05-09 21:01:00,
2013-05-09 11:11:00,84.0,70.0,30.03,West,278,9.0,13.0,63,0.00,,,0.00,537.000000,,2013-05-09 21:11:00,
2013-05-09 11:43:00,85.0,69.0,30.02,WNW,283,10.0,13.0,59,0.00,,,0.00,921.000000,,2013-05-09 21:43:00,
2013-05-09 11:53:00,85.0,69.0,30.02,WNW,283,10.0,13.0,59,0.00,,,0.00,921.000000,,2013-05-09 21:53:00,
2013-05-09 12:03:00,85.0,69.0,30.02,WNW,283,10.0,13.0,59,0.00,,,0.00,921.000000,,2013-05-09 22:03:00,
2013-05-09 12:12:00,85.0,69.0,30.02,WNW,283,10.0,13.0,59,0.00,,,0.00,921.000000,,2013-05-09 22:12:00,
2013-05-09 12:33:00,84.0,70.0,30.01,West,265,9.0,12.0,64,0.00,,,0.00,1018.000000,,2013-05-09 22:33:00,
2013-05-09 12:42:00,84.0,70.0,30.01,West,265,9.0,12.0,64,0.00,,,0.00,1018.000000,,2013-05-09 22:42:00,
2013-05-09 12:52:00,84.0,70.0,30.01,West,265,9.0,12.0,64,0.00,,,0.00,1018.000000,,2013-05-09 22:52:00,
2013-05-09 13:02:00,84.0,70.0,30.01,West,265,9.0,12.0,64,0.00,,,0.00,1018.000000,,2013-05-09 23:02:00,
2013-05-09 13:11:00,84.0,70.0,30.01,West,265,9.0,12.0,64,0.00,,,0.00,1018.000000,,2013-05-09 23:11:00,
2013-05-09 13:42:00,86.0,70.0,29.99,WNW,283,12.0,17.0,59,0.00,,,0.00,1129.000000,,2013-05-09 23:42:00,
2013-05-09 13:52:00,86.0,70.0,29.99,WNW,283,12.0,17.0,59,0.00,,,0.00,1129.000000,,2013-05-09 23:52:00,
2013-05-09 14:01:00,86.0,70.0,29.99,WNW,283,12.0,17.0,59,0.00,,,0.00,1129.000000,,2013-05-10 00:01:00,
2013-05-09 14:11:00,86.0,70.0,29.99,WNW,283,12.0,17.0,59,0.00,,,0.00,1129.000000,,2013-05-10 00:11:00,
2013-05-09 14:42:00,86.0,70.0,29.98,West,279,11.0,17.0,59,0.00,,,-99.99,977.000000,,2013-05-10 00:42:00,
2013-05-09 14:52:00,86.0,70.0,29.98,West,279,11.0,17.0,59,0.00,,,-99.99,977.000000,,2013-05-10 00:52:00,
2013-05-09 15:01:00,86.0,70.0,29.98,West,279,11.0,17.0,59,0.00,,,-99.99,977.000000,,2013-05-10 01:01:00,
2013-05-09 15:11:00,86.0,70.0,29.98,West,279,11.0,17.0,59,0.00,,,-99.99,977.000000,,2013-05-10 01:11:00,
2013-05-09 15:32:00,85.0,70.0,29.96,West,277,12.0,17.0,60,0.00,,,0.00,474.000000,,2013-05-10 01:32:00,
2013-05-09 15:42:00,85.0,70.0,29.96,West,277,12.0,17.0,60,0.00,,,0.00,474.000000,,2013-05-10 01:42:00,
2013-05-09 15:52:00,85.0,70.0,29.96,West,277,12.0,17.0,60,0.00,,,0.00,474.000000,,2013-05-10 01:52:00,
2013-05-09 16:01:00,85.0,70.0,29.96,West,277,12.0,17.0,60,0.00,,,0.00,474.000000,,2013-05-10 02:01:00,
2013-05-09 16:11:00,85.0,70.0,29.96,West,277,12.0,17.0,60,0.00,,,0.00,474.000000,,2013-05-10 02:11:00,
2013-05-09 16:42:00,85.0,66.0,29.95,WNW,302,8.0,16.0,54,0.00,,,0.00,331.000000,,2013-05-10 02:42:00,
2013-05-09 16:52:00,85.0,66.0,29.95,WNW,302,8.0,16.0,54,0.00,,,0.00,331.000000,,2013-05-10 02:52:00,
2013-05-09 17:01:00,85.0,66.0,29.95,WNW,302,8.0,16.0,54,0.00,,,0.00,331.000000,,2013-05-10 03:01:00,
2013-05-09 17:11:00,85.0,66.0,29.95,WNW,302,8.0,16.0,54,0.00,,,0.00,331.000000,,2013-05-10 03:11:00,
2013-05-09 17:43:00,83.0,67.0,29.95,West,279,10.0,15.0,59,0.00,,,0.00,328.000000,,2013-05-10 03:43:00,
2013-05-09 17:53:00,83.0,67.0,29.95,West,279,10.0,15.0,59,0.00,,,0.00,328.000000,,2013-05-10 03:53:00,
2013-05-09 18:03:00,83.0,67.0,29.95,West,279,10.0,15.0,59,0.00,,,0.00,328.000000,,2013-05-10 04:03:00,
2013-05-09 18:12:00,83.0,67.0,29.95,West,279,10.0,15.0,59,0.00,,,0.00,328.000000,,2013-05-10 04:12:00,
2013-05-09 18:33:00,80.0,69.0,29.97,WNW,285,8.0,13.0,70,0.00,,,0.00,138.000000,,2013-05-10 04:33:00,
2013-05-09 18:43:00,80.0,69.0,29.97,WNW,285,8.0,13.0,70,0.00,,,0.00,138.000000,,2013-05-10 04:43:00,
2013-05-09 18:53:00,80.0,69.0,29.97,WNW,285,8.0,13.0,70,0.00,,,0.00,138.000000,,2013-05-10 04:53:00,
2013-05-09 19:02:00,80.0,69.0,29.97,WNW,285,8.0,13.0,70,0.00,,,0.00,138.000000,,2013-05-10 05:02:00,
2013-05-09 19:12:00,80.0,69.0,29.97,WNW,285,8.0,13.0,70,0.00,,,0.00,138.000000,,2013-05-10 05:12:00,
2013-05-09 19:42:00,79.0,72.0,30.00,SW,223,4.0,9.0,78,0.00,,,0.00,18.000000,,2013-05-10 05:42:00,
2013-05-09 19:52:00,79.0,72.0,30.00,SW,223,4.0,9.0,78,0.00,,,0.00,18.000000,,2013-05-10 05:52:00,
2013-05-09 20:01:00,79.0,72.0,30.00,SW,223,4.0,9.0,78,0.00,,,0.00,18.000000,,2013-05-10 06:01:00,
2013-05-09 20:12:00,79.0,72.0,30.00,SW,223,4.0,9.0,78,0.00,,,0.00,18.000000,,2013-05-10 06:12:00,
2013-05-09 20:42:00,77.0,72.0,30.03,ESE,102,6.0,11.0,85,0.00,,,0.00,0.000000,,2013-05-10 06:42:00,
2013-05-09 20:52:00,77.0,72.0,30.03,ESE,102,6.0,11.0,85,0.00,,,0.00,0.000000,,2013-05-10 06:52:00,
2013-05-09 21:01:00,77.0,72.0,30.03,ESE,102,6.0,11.0,85,0.00,,,0.00,0.000000,,2013-05-10 07:01:00,
2013-05-09 21:11:00,77.0,72.0,30.03,ESE,102,6.0,11.0,85,0.00,,,0.00,0.000000,,2013-05-10 07:11:00,
2013-05-09 21:42:00,73.0,70.0,30.05,ENE,72,5.0,10.0,90,0.20,,,0.20,0.000000,,2013-05-10 07:42:00,
2013-05-09 21:52:00,73.0,70.0,30.05,ENE,72,5.0,10.0,90,0.20,,,0.20,0.000000,,2013-05-10 07:52:00,
2013-05-09 22:02:00,73.0,70.0,30.05,ENE,72,5.0,10.0,90,0.20,,,0.20,0.000000,,2013-05-10 08:02:00,
2013-05-09 22:12:00,73.0,70.0,30.05,ENE,72,5.0,10.0,90,0.20,,,0.20,0.000000,,2013-05-10 08:12:00,
2013-05-09 22:42:00,73.0,71.0,30.07,SE,125,7.0,9.0,92,0.01,,,0.21,0.000000,,2013-05-10 08:42:00,
2013-05-09 22:52:00,73.0,71.0,30.07,SE,125,7.0,9.0,92,0.01,,,0.21,0.000000,,2013-05-10 08:52:00,
2013-05-09 23:01:00,73.0,71.0,30.07,SE,125,7.0,9.0,92,0.01,,,0.21,0.000000,,2013-05-10 09:01:00,
2013-05-09 23:11:00,73.0,71.0,30.07,SE,125,7.0,9.0,92,0.01,,,0.21,0.000000,,2013-05-10 09:11:00,
2013-05-09 23:43:00,73.0,70.0,30.06,NE,56,4.0,9.0,90,0.01,,,0.22,0.000000,,2013-05-10 09:43:00,
2013-05-09 23:52:00,73.0,70.0,30.06,NE,56,4.0,9.0,90,0.01,,,0.22,0.000000,,2013-05-10 09:52:00,